• In Portugal
  • List of Countries
  • For 7 days
  • Water Temperature
  • Satellite Maps
  • Weather Map
  • Weather Widgets
  • user-avatar
    Login

    Hourly Weather Ankara

    Today, 14 December, Thursday

    Time Temperature Precipitation Wind Pressure Humidity
    00:00 +6°C° 0 mm 1 mps 685 mmHg 75%
    01:00 +6°C° 0 mm 1 mps 685 mmHg 75%
    02:00 +6°C° 0 mm 1 mps 685 mmHg 76%
    03:00 +6°C° 0 mm 1 mps 685 mmHg 76%
    04:00 +6°C° 0 mm 1 mps 685 mmHg 77%
    05:00 +6°C° 0 mm 1 mps 684 mmHg 77%
    06:00 +6°C° 0 mm 1 mps 684 mmHg 76%
    07:00 +6°C° 0 mm 1 mps 684 mmHg 74%
    08:00 +6°C° 0 mm 1 mps 684 mmHg 73%
    09:00 +7°C° 0 mm 2 mps 684 mmHg 67%
    10:00 +8°C° 0 mm 2 mps 685 mmHg 60%
    11:00 +10°C° 0 mm 2 mps 685 mmHg 54%
    12:00 +12°C° 0 mm 2 mps 684 mmHg 52%
    13:00 +12°C° 0 mm 2 mps 684 mmHg 50%
    14:00 +12°C° 0 mm 2 mps 684 mmHg 48%
    15:00 +10°C° 0 mm 2 mps 683 mmHg 53%
    16:00 +10°C° 0 mm 1 mps 683 mmHg 58%
    17:00 +8°C° 0 mm 1 mps 683 mmHg 63%
    18:00 +8°C° 0 mm 1 mps 683 mmHg 64%
    19:00 +7°C° 0 mm 1 mps 683 mmHg 66%
    20:00 +7°C° 0 mm 1 mps 683 mmHg 67%
    21:00 +6°C° 0 mm 1 mps 683 mmHg 67%
    22:00 +6°C° 0 mm 1 mps 683 mmHg 66%
    23:00 +6°C° 0 mm 1 mps 683 mmHg 66%

    Tomorrow, 15 December, Friday

    Time Temperature Precipitation Wind Pressure Humidity
    00:00 +6°C° 0 mm 1 mps 683 mmHg 66%
    01:00 +6°C° 0 mm 1 mps 683 mmHg 67%
    02:00 +6°C° 0 mm 1 mps 684 mmHg 67%
    03:00 +5°C° 0 mm 1 mps 684 mmHg 68%
    04:00 +5°C° 0 mm 1 mps 684 mmHg 69%
    05:00 +5°C° 0 mm 1 mps 684 mmHg 69%
    06:00 +5°C° 0 mm 1 mps 684 mmHg 67%
    07:00 +6°C° 0 mm 1 mps 685 mmHg 65%
    08:00 +6°C° 0 mm 1 mps 685 mmHg 62%
    09:00 +8°C° 0 mm 1 mps 686 mmHg 56%
    10:00 +10°C° 0 mm 1 mps 686 mmHg 50%
    11:00 +12°C° 0 mm 2 mps 686 mmHg 44%
    12:00 +12°C° 0 mm 2 mps 686 mmHg 44%
    13:00 +13°C° 0 mm 2 mps 686 mmHg 43%
    14:00 +13°C° 0 mm 2 mps 686 mmHg 42%
    15:00 +12°C° 0 mm 1 mps 685 mmHg 48%
    16:00 +10°C° 0 mm 1 mps 685 mmHg 54%
    17:00 +8°C° 0 mm 1 mps 685 mmHg 60%
    18:00 +8°C° 0 mm 1 mps 685 mmHg 60%
    19:00 +8°C° 0 mm 1 mps 685 mmHg 61%
    20:00 +7°C° 0 mm 1 mps 685 mmHg 61%
    21:00 +7°C° 0 mm 1 mps 685 mmHg 62%
    22:00 +7°C° 0 mm 1 mps 685 mmHg 63%
    23:00 +7°C° 0 mm 1 mps 685 mmHg 64%

    Day after tomorrow, 16 December, Saturday

    Time Temperature Precipitation Wind Pressure Humidity
    00:00 +6°C° 0 mm 1 mps 685 mmHg 65%
    01:00 +6°C° 0 mm 1 mps 685 mmHg 66%
    02:00 +6°C° 0 mm 1 mps 685 mmHg 67%
    03:00 +6°C° 0 mm 1 mps 685 mmHg 68%
    04:00 +6°C° 0 mm 1 mps 685 mmHg 68%
    05:00 +6°C° 0 mm 1 mps 685 mmHg 69%
    06:00 +6°C° 0 mm 1 mps 685 mmHg 69%
    07:00 +6°C° 0 mm 1 mps 686 mmHg 69%
    08:00 +6°C° 0 mm 1 mps 686 mmHg 68%
    09:00 +7°C° 0 mm 2 mps 686 mmHg 64%
    10:00 +9°C° 0 mm 2 mps 686 mmHg 59%
    11:00 +12°C° 0 mm 2 mps 686 mmHg 55%
    12:00 +12°C° 0 mm 2 mps 686 mmHg 53%
    13:00 +12°C° 0 mm 3 mps 685 mmHg 52%
    14:00 +13°C° 0 mm 3 mps 685 mmHg 50%
    15:00 +13°C° 0 mm 2 mps 685 mmHg 56%
    16:00 +10°C° 0 mm 2 mps 685 mmHg 61%
    17:00 +9°C° 0 mm 2 mps 684 mmHg 67%
    18:00 +9°C° 0 mm 2 mps 684 mmHg 68%
    19:00 +9°C° 0 mm 2 mps 684 mmHg 69%
    20:00 +8°C° 0 mm 2 mps 684 mmHg 70%
    21:00 +8°C° 0 mm 2 mps 684 mmHg 73%
    22:00 +8°C° 0 mm 2 mps 684 mmHg 75%
    23:00 +7°C° 0 mm 2 mps 684 mmHg 78%

    17 December, Sunday

    Time Temperature Precipitation Wind Pressure Humidity
    00:00 +7°C° 0 mm 2 mps 684 mmHg 79%
    01:00 +7°C° 0 mm 2 mps 684 mmHg 80%
    02:00 +8°C° 0 mm 2 mps 684 mmHg 81%
    03:00 +7°C° 0 mm 2 mps 684 mmHg 83%
    04:00 +7°C° 0 mm 2 mps 683 mmHg 85%
    05:00 +7°C° 0 mm 2 mps 683 mmHg 87%
    06:00 +7°C° 0 mm 2 mps 683 mmHg 88%
    07:00 +7°C° 0 mm 2 mps 683 mmHg 89%
    08:00 +7°C° 0 mm 3 mps 683 mmHg 89%
    09:00 +7°C° 0 mm 4 mps 684 mmHg 80%
    10:00 +9°C° 0 mm 5 mps 684 mmHg 71%
    11:00 +11°C° 0 mm 6 mps 684 mmHg 62%
    12:00 +13°C° 0 mm 6 mps 684 mmHg 60%
    13:00 +12°C° 0 mm 7 mps 683 mmHg 57%
    14:00 +14°C° 0 mm 7 mps 683 mmHg 55%
    15:00 +13°C° 0 mm 6 mps 683 mmHg 60%
    16:00 +12°C° 0 mm 5 mps 683 mmHg 64%
    17:00 +11°C° 0 mm 4 mps 683 mmHg 69%
    18:00 +11°C° 0.2 mm 3 mps 683 mmHg 72%
    19:00 +10°C° 0.2 mm 3 mps 684 mmHg 75%
    20:00 +10°C° 0.2 mm 3 mps 684 mmHg 79%
    21:00 +10°C° 0.6 mm 3 mps 684 mmHg 81%
    22:00 +9°C° 0.6 mm 3 mps 684 mmHg 84%
    23:00 +9°C° 0.6 mm 2 mps 685 mmHg 86%

    18 December, Monday

    Time Temperature Precipitation Wind Pressure Humidity
    00:00 +9°C° 0.5 mm 2 mps 685 mmHg 88%
    01:00 +8°C° 0.5 mm 2 mps 685 mmHg 89%
    02:00 +9°C° 0.5 mm 1 mps 685 mmHg 91%
    03:00 +9°C° 0.6 mm 1 mps 685 mmHg 90%
    04:00 +9°C° 0.6 mm 1 mps 685 mmHg 90%
    05:00 +8°C° 0.6 mm 1 mps 685 mmHg 90%
    06:00 +8°C° 0.4 mm 1 mps 685 mmHg 89%
    07:00 +8°C° 0.4 mm 1 mps 685 mmHg 89%
    08:00 +8°C° 0.4 mm 1 mps 685 mmHg 88%
    09:00 +8°C° 0.8 mm 1 mps 685 mmHg 86%
    10:00 +8°C° 0.8 mm 1 mps 684 mmHg 83%
    11:00 +7°C° 0.8 mm 2 mps 684 mmHg 80%
    12:00 +7°C° 1.5 mm 2 mps 684 mmHg 81%
    13:00 +6°C° 1.5 mm 2 mps 683 mmHg 81%
    14:00 +6°C° 1.5 mm 2 mps 683 mmHg 82%
    15:00 +6°C° 0.7 mm 2 mps 683 mmHg 82%
    16:00 +6°C° 0.7 mm 2 mps 683 mmHg 82%
    17:00 +7°C° 0.7 mm 1 mps 683 mmHg 82%
    18:00 +6°C° 0.5 mm 1 mps 683 mmHg 84%
    19:00 +6°C° 0.5 mm 1 mps 683 mmHg 86%
    20:00 +6°C° 0.5 mm 1 mps 683 mmHg 87%
    21:00 +6°C° 0.2 mm 1 mps 684 mmHg 88%
    22:00 +5°C° 0.2 mm 1 mps 684 mmHg 88%
    23:00 +5°C° 0.2 mm 1 mps 684 mmHg 89%

    19 December, Tuesday

    Time Temperature Precipitation Wind Pressure Humidity
    00:00 +5°C° 0.2 mm 1 mps 684 mmHg 90%
    01:00 +5°C° 0.2 mm 1 mps 684 mmHg 90%
    02:00 +5°C° 0.2 mm 1 mps 684 mmHg 91%
    03:00 +5°C° 0.2 mm 1 mps 684 mmHg 91%
    04:00 +5°C° 0.2 mm 1 mps 685 mmHg 92%
    05:00 +4°C° 0.2 mm 2 mps 685 mmHg 92%
    06:00 +4°C° 0.1 mm 2 mps 685 mmHg 92%
    07:00 +4°C° 0.1 mm 2 mps 686 mmHg 92%
    08:00 +4°C° 0.1 mm 2 mps 686 mmHg 92%
    09:00 +4°C° 0 mm 2 mps 687 mmHg 86%
    10:00 +5°C° 0 mm 2 mps 687 mmHg 81%
    11:00 +6°C° 0 mm 2 mps 687 mmHg 76%
    12:00 +7°C° 0 mm 1 mps 687 mmHg 73%
    13:00 +7°C° 0 mm 1 mps 686 mmHg 70%
    14:00 +7°C° 0 mm 1 mps 686 mmHg 67%
    15:00 +7°C° 0 mm 1 mps 686 mmHg 71%
    16:00 +6°C° 0 mm 1 mps 686 mmHg 74%
    17:00 +5°C° 0 mm 1 mps 686 mmHg 77%
    18:00 +5°C° 0 mm 1 mps 686 mmHg 78%
    19:00 +5°C° 0 mm 1 mps 686 mmHg 78%
    20:00 +4°C° 0 mm 2 mps 686 mmHg 78%
    21:00 +4°C° 0.1 mm 2 mps 686 mmHg 79%
    22:00 +4°C° 0.1 mm 2 mps 686 mmHg 81%
    23:00 +4°C° 0.1 mm 2 mps 686 mmHg 83%
    Show more